Weather History for Coffeyville, KS

Change the Weather History Date:

Friday, June 22, 2012

  Actual Average Record
Temperature  
Mean Temperature 76 °F -  
Max Temperature 89 °F 84 °F 96 °F (1998)
Min Temperature 64 °F 63 °F 57 °F (2001)
Cooling Degree Days 12    
Growing Degree Days 26 (Base 50)    
Moisture  
Dew Point 60 °F    
Average Humidity 60    
Maximum Humidity 90    
Minimum Humidity 29    
Precipitation  
Precipitation 0.01 in - - ()
Sea Level Pressure  
Sea Level Pressure 29.99 in    
Wind  
Wind Speed 4 mph (ENE)    
Max Wind Speed 12 mph    
Max Gust Speed 18 mph    
Visibility 10 miles    
Events      
Averages and records for this station are not official NWS values.
T = Trace of Precipitation, MM = Missing Value Source: NWS Daily Summary

Daily Weather History Graph

Daily Weather History Graph

Search for Another Location

Airport:

Trip Planner

Search our weather history database for the weather conditions in past years. The results will help you decide how hot, cold, wet, or windy it might be!

Date:

Astronomy

Jun. 22, 2012 Rise Set
Actual Time 6:03 AM CDT 8:45 PM CDT
Civil Twilight 5:32 AM CDT 9:16 PM CDT
Nautical Twilight 4:53 AM CDT 9:55 PM CDT
Astronomical Twilight 4:10 AM CDT 10:38 PM CDT
Moon 8:59 AM CDT (6/22) 10:48 PM CDT (6/22)
Length of Visible Light 15h 44m
Length of Day
14h 42m
Waxing Crescent, 9% of the Moon is Illuminated
Jun 22
Waxing Crescent
Jun 26
First Quarter
Jul 3
Full
Jul 10
Last Quarter
Jul 18
New

Hourly Weather History & Observations

Time (CDT) Temp. Heat Index Dew Point Humidity Pressure Visibility Wind Dir Wind Speed Gust Speed Precip Events Conditions
12:52 AM 69.1 °F - 63.0 °F 81% 30.03 in 10.0 mi Calm Calm - N/A   Clear
1:52 AM 66.9 °F - 63.0 °F 87% 30.03 in 10.0 mi Calm Calm - N/A   Clear
2:52 AM 66.0 °F - 62.1 °F 87% 30.03 in 10.0 mi North 3.5 mph - N/A   Clear
3:52 AM 66.0 °F - 61.0 °F 84% 30.03 in 10.0 mi Calm Calm - N/A   Clear
4:52 AM 64.0 °F - 61.0 °F 90% 30.03 in 10.0 mi North 4.6 mph - 0.01 in   Clear
5:52 AM 64.0 °F - 60.1 °F 87% 30.03 in 10.0 mi Calm Calm - N/A   Clear
6:52 AM 64.9 °F - 61.0 °F 87% 30.04 in 10.0 mi Calm Calm - N/A   Clear
7:52 AM 70.0 °F - 62.1 °F 76% 30.05 in 10.0 mi NNE 3.5 mph - N/A   Clear
8:52 AM 73.9 °F - 62.1 °F 66% 30.05 in 10.0 mi NE 6.9 mph - N/A   Clear
9:52 AM 79.0 °F - 62.1 °F 56% 30.04 in 10.0 mi NE 10.4 mph - N/A   Clear
10:52 AM 82.0 °F 83.0 °F 62.1 °F 51% 30.03 in 10.0 mi East 9.2 mph - N/A   Clear
11:52 AM 82.9 °F 83.3 °F 61.0 °F 47% 30.02 in 10.0 mi ENE 8.1 mph - N/A   Clear
12:52 PM 84.9 °F 84.8 °F 60.1 °F 43% 30.01 in 10.0 mi ENE 11.5 mph - N/A   Clear
1:52 PM 87.1 °F 86.1 °F 57.9 °F 37% 29.99 in 10.0 mi NE 10.4 mph - N/A   Clear
2:52 PM 87.1 °F 86.5 °F 59.0 °F 39% 29.96 in 10.0 mi East 4.6 mph - N/A   Clear
3:52 PM 88.0 °F 86.5 °F 55.9 °F 34% 29.95 in 10.0 mi ENE 6.9 mph - N/A   Clear
4:52 PM 89.1 °F 87.7 °F 57.0 °F 34% 29.93 in 10.0 mi ENE 8.1 mph - N/A   Clear
5:52 PM 89.1 °F 86.7 °F 53.1 °F 29% 29.91 in 10.0 mi East 9.2 mph 18.4 mph N/A   Clear
6:52 PM 87.1 °F 85.3 °F 55.0 °F 33% 29.90 in 10.0 mi East 8.1 mph - N/A   Clear
7:52 PM 84.0 °F 84.0 °F 60.1 °F 44% 29.91 in 10.0 mi ENE 6.9 mph - N/A   Clear
8:52 PM 77.0 °F - 62.1 °F 60% 29.91 in 10.0 mi ENE 4.6 mph - N/A   Clear
9:52 PM 73.9 °F - 62.1 °F 66% 29.90 in 10.0 mi ENE 4.6 mph - N/A   Clear
10:52 PM 73.9 °F - 61.0 °F 64% 29.91 in 10.0 mi East 5.8 mph - N/A   Clear